Weather History for Omaha, NE

Change the Weather History Date:

Thursday, November 22, 2012

  Actual Average Record
Temperature  
Mean Temperature 51 °F 35 °F  
Max Temperature 62 °F 45 °F 70 °F (1966)
Min Temperature 39 °F 26 °F -4 °F (1871)
Degree Days  
Heating Degree Days 14 30  
Month to date heating degree days 402 529  
Since 1 July heating degree days 922 1014  
Cooling Degree Days 0 0  
Month to date cooling degree days 0 0  
Year to date cooling degree days 1649 1112  
Moisture  
Dew Point 37 °F    
Average Humidity 62    
Maximum Humidity 83    
Minimum Humidity 40    
Precipitation  
Precipitation 0.00 in 0.05 in 0.80 in (1999)
Month to date precipitation 0.38 1.26  
Year to date precipitation 20.76 29.20  
Snow  
Snow 0.00 in 0.10 in - ()
Month to date snowfall T 1.3  
Since 1 July snowfall T 1.6  
Snow Depth 0.00 in    
Sea Level Pressure  
Sea Level Pressure 29.94 in    
Wind  
Wind Speed 13 mph (WNW)    
Max Wind Speed 35 mph    
Max Gust Speed 43 mph    
Visibility 10 miles    
Events      
T = Trace of Precipitation, MM = Missing Value Source: NWS Daily Summary

Daily Weather History Graph

Daily Weather History Graph

Search for Another Location

Airport:

Trip Planner

Search our weather history database for the weather conditions in past years. The results will help you decide how hot, cold, wet, or windy it might be!

Date:

Astronomy

Nov. 22, 2012 Rise Set
Actual Time 7:20 AM CST 4:58 PM CST
Civil Twilight 6:50 AM CST 5:28 PM CST
Nautical Twilight 6:16 AM CST 6:02 PM CST
Astronomical Twilight 5:43 AM CST 6:35 PM CST
Moon 1:47 PM CST 1:38 AM CST
Length of Visible Light 10h 38m
Length of Day
9h 38m
Waxing Gibbous, 71% of the Moon is Illuminated
Nov 22
Waxing Gibbous
Nov 28
Full
Dec 6
Last Quarter
Dec 13
New
Dec 19
First Quarter

Hourly Weather History & Observations

Time (CST) Temp. Windchill Dew Point Humidity Pressure Visibility Wind Dir Wind Speed Gust Speed Precip Events Conditions
12:52 AM 51.1 °F - 42.1 °F 71% 29.79 in 10.0 mi SSE 10.4 mph - N/A   Clear
1:52 AM 51.1 °F - 42.1 °F 71% 29.77 in 10.0 mi SSE 11.5 mph - N/A   Clear
2:52 AM 48.9 °F - 41.0 °F 74% 29.76 in 10.0 mi SE 11.5 mph - N/A   Clear
3:52 AM 46.9 °F - 41.0 °F 80% 29.75 in 10.0 mi SSE 11.5 mph - N/A   Clear
4:52 AM 46.9 °F - 41.0 °F 80% 29.74 in 10.0 mi SE 9.2 mph - N/A   Clear
5:52 AM 45.0 °F 40.6 °F 39.9 °F 82% 29.74 in 10.0 mi SSE 8.1 mph - N/A   Partly Cloudy
6:52 AM 46.0 °F 41.9 °F 41.0 °F 83% 29.76 in 10.0 mi SSE 8.1 mph - N/A   Partly Cloudy
7:52 AM 46.0 °F 42.5 °F 41.0 °F 83% 29.76 in 10.0 mi South 6.9 mph - N/A   Mostly Cloudy
8:52 AM 52.0 °F - 44.1 °F 74% 29.78 in 10.0 mi SSW 4.6 mph - N/A   Scattered Clouds
9:52 AM 57.0 °F - 39.0 °F 51% 29.80 in 10.0 mi WNW 10.4 mph - N/A   Scattered Clouds
10:52 AM 59.0 °F - 36.0 °F 42% 29.81 in 10.0 mi WNW 11.5 mph - N/A   Scattered Clouds
11:52 AM 61.0 °F - 37.0 °F 41% 29.84 in 10.0 mi NW 16.1 mph - N/A   Scattered Clouds
12:52 PM 62.1 °F - 39.0 °F 43% 29.86 in 10.0 mi NW 21.9 mph 31.1 mph N/A   Scattered Clouds
1:52 PM 57.9 °F - 37.0 °F 46% 29.91 in 10.0 mi NNW 21.9 mph 35.7 mph N/A   Scattered Clouds
2:52 PM 55.9 °F - 37.9 °F 51% 29.96 in 10.0 mi NW 28.8 mph 38.0 mph N/A   Mostly Cloudy
3:52 PM 55.0 °F - 37.0 °F 51% 30.02 in 10.0 mi NNW 23.0 mph 34.5 mph N/A   Mostly Cloudy
4:52 PM 50.0 °F - 35.1 °F 57% 30.08 in 10.0 mi NNW 20.7 mph 31.1 mph N/A   Scattered Clouds
5:52 PM 48.0 °F - 35.1 °F 61% 30.12 in 10.0 mi NNW 10.4 mph - N/A   Partly Cloudy
6:52 PM 46.9 °F - 33.1 °F 59% 30.16 in 10.0 mi NW 16.1 mph - N/A   Clear
7:52 PM 46.0 °F 39.3 °F 32.0 °F 58% 30.18 in 10.0 mi NW 16.1 mph - N/A   Clear
8:52 PM 42.1 °F 36.1 °F 30.9 °F 65% 30.21 in 10.0 mi NW 10.4 mph - N/A   Clear
9:52 PM 42.1 °F 36.1 °F 30.9 °F 65% 30.23 in 10.0 mi NW 10.4 mph - N/A   Clear
10:52 PM 39.0 °F 34.0 °F 30.0 °F 70% 30.23 in 10.0 mi West 6.9 mph - N/A   Partly Cloudy
11:52 PM 41.0 °F 33.5 °F 30.0 °F 65% 30.23 in 10.0 mi WNW 13.8 mph - N/A   Partly Cloudy